Stations météo

Publicité
Nancy/Essey, France (7180): Température de l'air & dewpoint: 25.10.2020 22:00:00 - 31.10.2020 22:00:00 (CET)Nancy/Essey, France (7180): Température de l'air 5cm: 25.10.2020 22:00:00 - 31.10.2020 22:00:00 (CET)Nancy/Essey, France (7180): Température de l'air -20cm & Température de l'air -100cm: 25.10.2020 22:00:00 - 31.10.2020 22:00:00 (CET)Nancy/Essey, France (7180): Vitesse du vent & gusts: 25.10.2020 22:00:00 - 31.10.2020 22:00:00 (CET)Nancy/Essey, France (7180): Direction du vent: 25.10.2020 22:00:00 - 31.10.2020 22:00:00 (CET)Nancy/Essey, France (7180): reduced air pressure: 25.10.2020 22:00:00 - 31.10.2020 22:00:00 (CET)Nancy/Essey, France (7180): visibility: 25.10.2020 22:00:00 - 31.10.2020 22:00:00 (CET)Nancy/Essey, France (7180): Ensoleillement: 25.10.2020 22:00:00 - 31.10.2020 22:00:00 (CET)Nancy/Essey, France (7180): Quantités de précipitations: 25.10.2020 22:00:00 - 31.10.2020 22:00:00 (CET)
Date & Time tt [°C] td [°C] tt 5cm [°C] tt -20cm [°C] tt -100cm [°C] ff [km/h] ff [knt] fx [km/h] fx [knt] dd ppp [hPa] vv [km] sd [min] rr [mm]
31.10.2020 22:00:00 12,3 8,8 11,9 12,5 13,8 12 7 29 16 SSE 1019,5 34 0 0,0
31.10.2020 21:00:00 12,4 8,9 11,5 12,5 13,8 20 11 32 17 S 1019,7 35 0 0,0
31.10.2020 20:00:00 12,5 8,8 11,4 12,5 13,8 14 8 26 14 S 1019,9 38 0 0,0
31.10.2020 19:00:00 13,0 8,9 12,0 12,5 13,8 15 8 31 17 S 1019,7 42 0 0,0
31.10.2020 18:00:00 13,8 9,2 12,4 12,4 13,8 14 8 28 15 S 1019,8 55 0 0,0
31.10.2020 17:00:00 15,2 9,8 13,9 12,3 13,8 16 9 29 16 S 1019,9 60 37 0,0
31.10.2020 16:00:00 16,8 9,7 18,5 12,2 13,8 18 10 34 18 S 1019,7 38 60 0,0
31.10.2020 15:00:00 17,5 9,6 19,3 12,1 13,8 19 11 32 17 S 1019,5 40 60 0,0
31.10.2020 14:00:00 17,3 9,2 18,7 12,0 13,8 19 10 31 17 S 1020,1 38 60 0,0
31.10.2020 13:00:00 16,0 9,6 17,5 12,0 13,8 13 7 30 16 S 1021,0 38 60 0,0
31.10.2020 12:00:00 14,6 8,8 17,3 12,0 13,8 10 5 21 11 S 1022,0 42 60 0,0
31.10.2020 11:00:00 12,7 8,4 15,2 12,0 13,8 8 4 13 7 SSE 1022,8 20 60 0,0
31.10.2020 10:00:00 10,3 8,1 11,8 12,1 13,8 2 1 6 4 ESE 1023,7 12 60 0,0
31.10.2020 09:00:00 7,8 6,7 3,8 12,3 13,8 1 1 7 4 SSE 1024,7 1,3 52 0,0
31.10.2020 08:00:00 5,0 4,6 2,0 12,4 13,8 3 2 5 3 S 1025,4 1,0 15 0,0
31.10.2020 07:00:00 5,0 4,6 1,8 12,5 13,8 3 2 6 3 E 1025,2 2,5 0 0,0
31.10.2020 06:00:00 5,7 5,1 2,9 12,6 13,8 4 2 6 3 SE 1025,5 9 0 0,0
31.10.2020 05:00:00 6,1 5,4 2,9 12,7 13,8 2 1 6 3 SSE 1025,7 16 0 0,0
31.10.2020 04:00:00 7,0 5,9 4,2 12,7 13,8 4 2 5 3 ESE 1025,6 19 0 0,0
31.10.2020 03:00:00 9,0 7,3 6,7 12,7 13,8 2 1 6 4 SSW 1025,7 45 0 0,0
31.10.2020 02:00:00 10,3 7,5 8,2 12,7 13,8 5 3 6 4 E 1026,0 60 0 0,0
31.10.2020 01:00:00 12,3 7,8 11,1 12,7 13,8 1 1 15 8 SE 1026,4 60 0 0,0
31.10.2020 00:00:00 12,9 7,3 11,8 12,8 13,8 4 2 14 8 SSW 1026,6 60 0 0,0
30.10.2020 23:00:00 13,2 7,4 12,3 12,8 13,8 6 4 17 9 WSW 1026,9 60 0 -
30.10.2020 22:00:00 13,5 7,5 12,6 12,8 13,9 9 5 19 10 SSW 1026,7 60 0 0,0
30.10.2020 21:00:00 13,3 7,9 12,4 12,8 13,8 8 5 14 8 SW 1026,8 57 0 0,0
30.10.2020 20:00:00 13,5 8,1 12,8 12,8 13,9 5 3 15 8 SW 1026,8 60 0 0,0
30.10.2020 19:00:00 13,7 8,1 13,2 12,7 13,8 8 5 19 11 SW 1026,6 60 0 0,0
30.10.2020 18:00:00 14,0 8,4 13,4 12,7 13,9 10 5 22 12 SW 1026,2 60 0 0,0
30.10.2020 17:00:00 14,3 8,5 13,8 12,7 13,8 14 7 34 19 WSW 1025,8 60 0 0,0
30.10.2020 16:00:00 14,5 9,1 14,3 12,6 13,8 16 8 32 18 SW 1025,4 60 0 0,0
30.10.2020 15:00:00 14,6 9,2 14,7 12,6 13,9 16 8 30 16 SW 1025,2 60 0 0,0
30.10.2020 14:00:00 14,6 9,6 14,9 12,5 13,9 16 8 35 19 SW 1025,3 60 0 0,0
30.10.2020 13:00:00 14,5 9,5 14,6 12,5 13,8 18 10 35 19 SW 1025,5 60 0 0,0
30.10.2020 12:00:00 14,4 9,8 14,0 12,5 13,9 18 10 31 17 SW 1025,4 56 0 0,0
30.10.2020 11:00:00 13,7 9,9 13,0 12,5 13,9 11 6 25 14 SW 1025,6 60 0 0,0
30.10.2020 10:00:00 13,2 10,0 12,8 12,5 13,9 13 7 27 14 SSW 1025,2 60 0 0,0
30.10.2020 09:00:00 12,8 10,3 12,6 12,5 13,9 11 6 23 12 SSW 1025,0 60 0 0,0
30.10.2020 08:00:00 12,8 10,3 12,2 12,4 13,9 12 6 29 16 SW 1024,7 60 0 0,0
30.10.2020 07:00:00 13,0 10,5 12,4 12,5 13,9 14 8 30 16 SSW 1024,2 60 0 0,0
30.10.2020 06:00:00 12,8 10,5 11,8 12,5 13,9 13 7 29 15 SSW 1023,7 60 0 0,0
30.10.2020 05:00:00 12,8 10,7 11,8 12,5 13,9 14 7 32 17 SW 1023,6 60 0 0,0
30.10.2020 04:00:00 13,3 11,2 12,3 12,5 13,9 18 10 32 17 SW 1023,1 57 0 0,0
30.10.2020 03:00:00 13,4 11,1 12,7 12,5 13,9 18 10 32 18 SW 1022,9 60 0 0,0
30.10.2020 02:00:00 13,6 10,8 13,0 12,5 13,9 17 9 34 18 SW 1022,8 60 0 0,0
30.10.2020 01:00:00 13,4 10,6 12,7 12,5 13,9 14 7 29 16 SSW 1023,1 60 0 0,0
30.10.2020 00:00:00 13,2 10,6 12,3 12,5 13,9 16 9 32 17 SW 1023,1 60 0 0,0
29.10.2020 23:00:00 12,8 10,2 11,9 12,5 13,9 14 8 32 17 SSW 1023,2 37 0 0,0
29.10.2020 22:00:00 12,7 10,2 11,8 12,5 13,9 17 9 32 17 SW 1023,0 14 0 0,0
29.10.2020 21:00:00 12,4 9,9 11,6 12,5 13,9 11 6 28 15 SSW 1023,0 59 0 0,0
29.10.2020 20:00:00 12,0 9,9 10,7 12,5 13,9 11 6 21 12 SW 1023,0 59 0 0,0
29.10.2020 19:00:00 11,5 10,1 10,6 12,5 13,9 12 6 24 13 SSW 1022,8 17 0 0,4
29.10.2020 18:00:00 11,7 9,9 10,7 12,4 13,9 16 9 36 20 SW 1022,5 3,9 0 0,0
29.10.2020 17:00:00 13,3 7,9 12,9 12,4 13,9 14 8 31 17 SSW 1022,0 60 0 0,0
29.10.2020 16:00:00 13,9 7,2 13,7 12,2 13,9 18 10 36 19 WSW 1022,0 60 3 0,0
29.10.2020 15:00:00 13,7 7,9 13,3 12,2 13,9 20 11 39 21 WSW 1021,9 58 0 0,0
29.10.2020 14:00:00 13,8 7,8 13,4 12,2 13,9 16 9 42 23 WSW 1021,7 56 0 0,0
29.10.2020 13:00:00 13,5 7,9 14,1 12,2 13,9 17 9 40 22 SW 1021,9 55 4 0,0
29.10.2020 12:00:00 12,7 8,2 12,1 12,2 13,9 20 11 35 19 WSW 1022,0 48 0 0,0
29.10.2020 11:00:00 12,0 8,3 12,0 12,2 13,9 15 8 27 15 WSW 1022,0 52 0 0,0
29.10.2020 10:00:00 12,0 8,5 11,3 12,2 13,9 16 9 34 18 SW 1021,3 48 0 0,0
29.10.2020 09:00:00 11,0 8,4 10,0 12,2 13,9 10 5 26 14 SSW 1020,7 46 0 0,0
29.10.2020 08:00:00 10,4 7,8 9,7 12,2 14,0 15 8 37 20 SW 1019,7 60 0 0,0
29.10.2020 07:00:00 10,5 7,6 9,1 12,3 14,0 19 10 37 20 WSW 1018,4 60 0 0,2
29.10.2020 06:00:00 10,9 7,9 9,3 12,3 14,0 16 9 46 25 W 1018,0 17 0 0,4
29.10.2020 05:00:00 11,8 8,3 10,6 12,3 14,0 25 13 55 30 WSW 1016,3 38 0 0,0
29.10.2020 04:00:00 12,0 8,5 10,8 12,3 14,0 19 10 38 21 SW 1015,8 48 0 0,0
29.10.2020 03:00:00 12,0 8,7 10,8 12,3 14,0 20 11 36 19 SW 1015,8 35 0 0,0
29.10.2020 02:00:00 11,6 9,0 10,3 12,4 14,0 16 9 38 20 SW 1015,9 59 0 1,0
29.10.2020 01:00:00 12,5 8,6 11,0 12,4 14,0 22 12 41 22 SSW 1015,4 58 0 0,0
29.10.2020 00:00:00 11,7 9,3 10,8 12,4 14,0 19 10 37 20 S 1015,5 19 0 0,0
28.10.2020 23:00:00 11,8 8,8 10,3 12,4 14,0 19 10 54 29 S 1015,0 60 0 0,4
28.10.2020 22:00:00 12,9 8,0 11,7 12,5 14,0 23 12 45 25 SSW 1014,9 39 0 0,0
28.10.2020 21:00:00 12,9 7,6 11,8 12,5 14,0 23 13 40 21 SSW 1014,4 60 0 0,0
28.10.2020 20:00:00 12,8 7,7 12,0 12,5 14,0 21 11 37 20 SSW 1014,3 60 0 0,0
28.10.2020 19:00:00 12,8 7,9 11,7 12,4 14,0 16 9 30 16 SSW 1014,2 60 0 0,0
28.10.2020 18:00:00 12,9 8,6 12,0 12,4 14,0 16 8 28 15 SSW 1014,1 60 0 0,0
28.10.2020 17:00:00 13,8 7,1 12,9 12,3 14,0 16 9 36 20 SW 1014,1 60 15 0,0
28.10.2020 16:00:00 15,4 6,4 14,3 12,3 14,0 21 12 49 26 SW 1013,8 60 33 0,0
28.10.2020 15:00:00 14,7 5,7 14,7 12,2 14,0 29 16 50 27 SW 1014,2 60 39 0,0
28.10.2020 14:00:00 14,9 5,9 14,8 12,1 14,1 24 13 50 27 SW 1014,3 44 20 0,0
28.10.2020 13:00:00 13,8 6,9 14,5 12,0 14,1 21 11 47 26 SW 1014,6 52 22 0,0
28.10.2020 12:00:00 13,9 7,9 14,0 12,0 14,0 21 12 43 23 SW 1015,0 40 36 0,0
28.10.2020 11:00:00 13,7 8,3 12,8 12,0 14,1 16 9 48 26 WSW 1014,6 60 22 0,0
28.10.2020 10:00:00 12,5 7,8 12,1 12,0 14,1 19 11 36 19 SW 1013,6 54 13 0,0
28.10.2020 09:00:00 12,7 9,3 10,5 12,0 14,1 16 9 31 17 SSW 1012,8 55 21 0,0
28.10.2020 08:00:00 11,1 9,7 9,9 12,0 14,1 12 6 24 13 S 1012,1 31 0 0,0
28.10.2020 07:00:00 11,0 9,7 10,2 12,0 14,1 12 6 39 21 S 1011,2 9 0 0,2
28.10.2020 06:00:00 10,7 9,3 9,9 12,1 14,1 20 11 39 21 SSW 1010,4 9 0 0,0
28.10.2020 05:00:00 10,5 9,3 9,7 12,0 14,1 18 10 35 19 S 1010,0 14 0 0,0
28.10.2020 04:00:00 10,3 8,9 9,3 12,1 14,1 17 9 41 22 S 1009,9 15 0 0,0
28.10.2020 03:00:00 9,9 8,7 9,2 12,1 14,1 17 9 42 23 S 1009,9 10 0 0,0
28.10.2020 02:00:00 10,3 8,2 9,7 12,1 14,1 19 10 43 23 S 1009,9 38 0 0,0
28.10.2020 01:00:00 11,1 7,4 10,6 12,1 14,1 21 11 48 26 S 1009,6 60 0 0,0
28.10.2020 00:00:00 10,9 7,6 9,3 12,2 14,1 26 14 46 25 SSW 1009,6 47 0 0,0
27.10.2020 23:00:00 10,7 7,6 9,3 12,2 14,1 23 13 55 30 SSW 1009,7 11 0 0,0
27.10.2020 22:00:00 11,2 6,7 10,7 12,2 14,1 26 14 49 26 SSW 1009,5 60 0 0,0
27.10.2020 21:00:00 11,2 6,5 10,6 12,2 14,1 25 13 51 28 S 1009,2 60 0 0,0
27.10.2020 20:00:00 10,9 6,8 10,4 12,2 14,1 19 10 35 19 S 1009,6 59 0 0,0
27.10.2020 19:00:00 10,8 6,9 10,2 12,2 14,1 18 10 38 21 S 1010,0 51 0 0,0
27.10.2020 18:00:00 11,1 6,6 10,5 12,2 14,1 22 12 40 22 S 1010,0 60 0 0,0
27.10.2020 17:00:00 11,4 6,3 10,9 12,1 14,1 20 11 38 20 S 1009,9 60 23 0,0
27.10.2020 16:00:00 11,9 6,0 12,2 12,0 14,1 20 11 39 21 S 1010,1 60 5 0,0
27.10.2020 15:00:00 12,3 5,2 12,7 12,0 14,2 23 12 43 23 SSW 1010,4 55 14 0,0
27.10.2020 14:00:00 12,3 5,5 13,1 11,9 14,1 22 12 42 23 SSW 1010,7 33 35 0,0
27.10.2020 13:00:00 12,5 6,5 12,0 11,8 14,1 22 12 40 21 SSW 1011,1 49 10 0,0
27.10.2020 12:00:00 11,1 6,0 11,9 11,8 14,1 21 12 38 20 SSW 1011,5 48 3 0,0
27.10.2020 11:00:00 10,9 7,0 11,5 11,8 14,1 19 11 35 19 SSW 1011,5 32 22 0,0
27.10.2020 10:00:00 10,6 7,5 9,3 11,9 14,2 18 10 32 17 SSW 1011,1 27 34 0,0
27.10.2020 09:00:00 9,0 7,3 8,0 11,9 14,2 15 8 26 14 SSW 1011,4 17 16 0,0
27.10.2020 08:00:00 8,3 6,9 7,2 12,0 14,2 14 7 24 13 S 1011,0 40 0 0,0
27.10.2020 07:00:00 7,9 6,7 7,2 12,0 14,2 11 6 21 11 SSW 1010,1 18 0 0,0
27.10.2020 06:00:00 8,0 6,8 7,1 12,1 14,2 10 5 25 13 S 1009,6 19 0 0,4
27.10.2020 05:00:00 8,2 6,8 7,5 12,2 14,1 12 6 21 12 SSW 1009,6 3,1 0 1,0
27.10.2020 04:00:00 8,2 6,5 7,2 12,3 14,2 10 5 20 11 S 1009,2 45 0 0,0
27.10.2020 03:00:00 7,4 6,2 5,9 12,4 14,2 8 4 14 7 SSE 1009,5 35 0 0,0
27.10.2020 02:00:00 7,0 5,8 5,1 12,4 14,1 8 5 18 10 S 1009,3 46 0 0,0
27.10.2020 01:00:00 6,8 5,6 5,1 12,5 14,2 7 4 16 8 SSE 1009,0 34 0 0,0
27.10.2020 00:00:00 7,9 6,0 6,5 12,6 14,2 10 5 22 12 S 1008,9 20 0 0,0
26.10.2020 23:00:00 7,6 6,2 6,3 12,7 14,2 9 5 17 9 SSW 1009,0 36 0 0,0
26.10.2020 22:00:00 8,1 6,2 7,0 12,7 14,2 10 5 27 15 SSW 1009,0 55 0 0,6
26.10.2020 21:00:00 8,5 6,8 7,7 12,8 14,2 13 7 26 14 SSW 1009,1 58 0 0,0
26.10.2020 20:00:00 8,6 6,9 7,8 12,8 14,1 14 8 24 13 S 1008,4 57 0 0,0
26.10.2020 19:00:00 9,2 7,5 8,1 12,9 14,2 13 7 22 12 S 1008,3 47 0 0,0
26.10.2020 18:00:00 9,7 7,0 8,5 12,8 14,1 9 5 16 9 S 1007,1 60 0 0,0
26.10.2020 17:00:00 11,0 6,3 10,2 12,8 14,2 9 5 23 12 S 1006,9 60 46 0,0
26.10.2020 16:00:00 12,2 6,5 9,1 12,8 14,2 15 8 28 15 SSW 1006,4 50 20 0,4
26.10.2020 15:00:00 12,0 5,8 10,9 12,8 14,2 10 6 28 15 S 1006,5 58 11 0,0
26.10.2020 14:00:00 11,7 6,6 11,7 12,7 14,2 14 8 28 15 S 1006,3 60 0 0,0
26.10.2020 13:00:00 11,5 6,0 11,9 12,7 14,2 16 9 33 18 S 1006,7 59 2 0,0
26.10.2020 12:00:00 11,0 5,9 11,0 12,8 14,2 17 9 36 19 SW 1006,8 59 0 0,0
26.10.2020 11:00:00 10,6 6,9 10,7 12,8 14,2 14 8 29 16 SW 1006,8 60 0 0,0
26.10.2020 10:00:00 10,2 7,1 9,9 12,8 14,2 18 10 36 20 SW 1006,6 60 0 0,0
26.10.2020 09:00:00 10,0 7,4 9,4 12,9 14,2 17 9 31 17 SSW 1006,6 60 0 0,0
26.10.2020 08:00:00 9,7 7,5 9,2 12,9 14,2 15 8 29 16 SSW 1005,7 60 0 0,0
26.10.2020 07:00:00 9,8 7,9 9,3 13,0 14,1 15 8 27 14 SSW 1005,2 60 0 0,0
26.10.2020 06:00:00 10,0 7,9 9,6 13,0 14,2 13 7 24 13 SW 1005,4 60 0 0,0
26.10.2020 05:00:00 10,3 8,2 9,8 13,1 14,2 13 7 26 14 SSW 1004,6 60 0 0,0
26.10.2020 04:00:00 10,7 8,6 10,1 13,1 14,2 14 8 25 14 SSW 1004,5 60 0 0,0
26.10.2020 03:00:00 10,9 9,7 10,2 13,2 14,2 9 5 22 12 SSW 1004,7 25 0 0,4
26.10.2020 02:00:00 10,9 10,0 10,3 13,2 14,2 10 6 20 11 S 1004,8 54 0 0,4
26.10.2020 01:00:00 10,7 9,9 10,2 13,2 14,2 17 9 28 15 SE 1003,9 11 0 1,2
26.10.2020 00:00:00 10,5 9,9 10,0 13,3 14,2 4 2 10 5 S 1004,9 17 0 0,8
25.10.2020 23:00:00 10,6 9,7 10,0 13,3 14,2 4 2 16 8 E 1005,5 9 0 0,4
25.10.2020 22:00:00 10,7 9,5 9,9 13,3 14,1 5 3 12 7 S 1005,8 39 0 0,0

tt = Température de l'air
td = dewpoint
tt 5cm = Température de l'air 5cm
tt -20cm = Température de l'air -20cm
tt -100cm = Température de l'air -100cm
ff = Vitesse du vent
fx = gusts
dd = Direction du vent
ppp = reduced air pressure
vv = visibility
sd = Ensoleillement
rr = Quantités de précipitations

stations d'obs. à proximité